DW2913 Weather Reports


Display with metric or nautical units.
time (UTC)temp
F
wind
direction
speed
MPH
gust
MPH
rain 1hr
in
rain 24hr
in
rain mn
in
humidity
%
barometer
mb
20200807180707 78 66 0.0 2.0 0.00 0.00 0.00 56 1017.5
20200807180210 78 66 0.0 4.0 0.00 0.00 0.00 55 1017.6
20200807175706 78 66 0.0 4.0 0.00 0.00 0.00 54 1017.5
20200807175208 78 66 0.0 4.0 0.00 0.00 0.00 53 1017.5
20200807174707 78 65 0.0 3.0 0.00 0.00 0.00 54 1017.4
20200807174209 79 65 0.0 4.0 0.00 0.00 0.00 52 1017.4
20200807173707 78 69 1.0 7.0 0.00 0.00 0.00 52 1017.5
20200807173209 79 74 1.0 7.0 0.00 0.00 0.00 51 1017.5
20200807172707 79 86 2.0 7.0 0.00 0.00 0.00 49 1017.4
20200807172208 80 73 1.0 7.0 0.00 0.00 0.00 48 1017.4
20200807171706 80 62 1.0 11.0 0.00 0.00 0.00 49 1017.4
20200807171211 80 62 3.0 11.0 0.00 0.00 0.00 49 1017.5
20200807170711 81 60 3.0 11.0 0.00 0.00 0.00 50 1017.5
20200807170211 81 53 2.0 10.0 0.00 0.00 0.00 49 1017.4
20200807165710 81 49 3.0 10.0 0.00 0.00 0.00 50 1017.5
20200807165212 81 49 4.0 10.0 0.00 0.00 0.00 48 1017.4
20200807164713 81 49 4.0 10.0 0.00 0.00 0.00 49 1017.5
20200807164213 81 51 5.0 10.0 0.00 0.00 0.00 48 1017.5
20200807163713 81 61 5.0 8.0 0.00 0.00 0.00 46 1017.6
20200807163213 82 44 3.0 13.0 0.00 0.00 0.00 45 1017.5
20200807162714 83 58 3.0 13.0 0.00 0.00 0.00 46 1017.6
20200807162212 81 32 4.0 13.0 0.00 0.00 0.00 49 1017.6
20200807161712 81 51 4.0 10.0 0.00 0.00 0.00 50 1017.6
20200807161211 81 69 4.0 13.0 0.00 0.00 0.00 50 1017.6
20200807160711 82 87 4.0 13.0 0.00 0.00 0.00 49 1017.5
20200807160211 82 74 4.0 13.0 0.00 0.00 0.00 49 1017.5
20200807155708 82 44 5.0 13.0 0.00 0.00 0.00 49 1017.5
20200807155212 81 59 6.0 13.0 0.00 0.00 0.00 49 1017.5
20200807154711 81 45 6.0 11.0 0.00 0.00 0.00 48 1017.5
20200807154212 82 89 4.0 11.0 0.00 0.00 0.00 49 1017.5
20200807153710 83 41 2.0 10.0 0.00 0.00 0.00 49 1017.4
20200807153210 82 70 1.0 7.0 0.00 0.00 0.00 50 1017.5
20200807152709 81 100 2.0 10.0 0.00 0.00 0.00 49 1017.5
20200807152212 82 53 3.0 12.0 0.00 0.00 0.00 51 1017.5
20200807151709 81 93 4.0 12.0 0.00 0.00 0.00 50 1017.6
20200807151211 81 59 5.0 12.0 0.00 0.00 0.00 48 1017.6
20200807150710 81 63 4.0 11.0 0.00 0.00 0.00 49 1017.6
20200807150211 81 94 4.0 11.0 0.00 0.00 0.00 50 1017.6
20200807145708 81 46 4.0 11.0 0.00 0.00 0.00 51 1017.7
20200807145211 82 84 4.0 12.0 0.00 0.00 0.00 50 1017.8
20200807144710 82 64 4.0 12.0 0.00 0.00 0.00 48 1017.8
20200807144212 81 35 4.0 13.0 0.00 0.00 0.00 51 1018.0
20200807143711 81 132 5.0 13.0 0.00 0.00 0.00 50 1017.9
20200807143209 81 67 4.0 13.0 0.00 0.00 0.00 50 1017.9
20200807142711 82 80 2.0 8.0 0.00 0.00 0.00 49 1017.9
20200807142211 82 82 3.0 11.0 0.00 0.00 0.00 47 1017.9
20200807141709 82 46 4.0 11.0 0.00 0.00 0.00 47 1018.0
20200807141211 83 42 4.0 11.0 0.00 0.00 0.00 45 1017.9
20200807140713 82 76 3.0 12.0 0.00 0.00 0.00 47 1017.9
20200807140211 82 47 4.0 12.0 0.00 0.00 0.00 49 1017.8
20200807135709 81 46 6.0 12.0 0.00 0.00 0.00 49 1017.9
20200807135211 82 55 6.0 13.0 0.00 0.00 0.00 49 1017.8
20200807134711 82 47 5.0 15.0 0.00 0.00 0.00 47 1017.8
20200807134212 82 63 6.0 15.0 0.00 0.00 0.00 50 1017.8
20200807133711 83 79 6.0 15.0 0.00 0.00 0.00 49 1018.0
20200807133210 82 65 6.0 13.0 0.00 0.00 0.00 49 1017.9
20200807132710 82 51 7.0 13.0 0.00 0.00 0.00 50 1017.9
20200807132211 82 74 6.0 13.0 0.00 0.00 0.00 50 1018.0
20200807131709 82 76 4.0 13.0 0.00 0.00 0.00 51 1018.0
20200807131211 82 86 3.0 11.0 0.00 0.00 0.00 52 1018.0
20200807130711 81 63 5.0 12.0 0.00 0.00 0.00 54 1018.0
20200807130211 81 49 6.0 12.0 0.00 0.00 0.00 53 1018.0
20200807125708 82 61 6.0 12.0 0.00 0.00 0.00 53 1017.9
20200807125212 81 63 5.0 12.0 0.00 0.00 0.00 53 1018.0
20200807124711 81 77 5.0 12.0 0.00 0.00 0.00 54 1017.9
20200807124212 81 66 5.0 14.0 0.00 0.00 0.00 56 1017.9
20200807123710 81 78 6.0 14.0 0.00 0.00 0.00 56 1018.0
20200807123211 81 65 6.0 14.0 0.00 0.00 0.00 55 1018.0
20200807122711 81 58 6.0 14.0 0.00 0.00 0.00 58 1018.0
20200807122212 81 91 6.0 13.0 0.00 0.00 0.00 55 1018.0
20200807121708 81 53 6.0 14.0 0.00 0.00 0.00 57 1018.0
20200807121213 81 42 5.0 15.0 0.00 0.00 0.00 58 1018.0
20200807120712 81 64 6.0 15.0 0.00 0.00 0.00 58 1017.9
20200807120211 80 45 7.0 13.0 0.00 0.00 0.00 57 1017.8
20200807115708 81 32 7.0 13.0 0.00 0.00 0.00 59 1017.8
20200807115210 80 51 6.0 12.0 0.00 0.00 0.00 59 1017.8
20200807114711 81 76 5.0 11.0 0.00 0.00 0.00 60 1017.7
20200807114212 81 60 4.0 10.0 0.00 0.00 0.00 61 1017.8
20200807113711 80 55 3.0 14.0 0.00 0.00 0.00 62 1017.8
20200807113211 80 42 4.0 14.0 0.00 0.00 0.00 62 1017.9
20200807112711 80 50 3.0 14.0 0.00 0.00 0.00 61 1017.9
20200807112212 79 74 4.0 10.0 0.00 0.00 0.00 64 1017.9
20200807111709 79 75 4.0 10.0 0.00 0.00 0.00 64 1018.0
20200807111211 79 65 3.0 13.0 0.00 0.00 0.00 62 1018.0
20200807110711 79 47 4.0 13.0 0.00 0.00 0.00 62 1018.1
20200807110210 79 92 4.0 13.0 0.00 0.00 0.00 64 1018.2
20200807105714 79 51 3.0 12.0 0.00 0.00 0.00 65 1018.2
20200807105213 79 28 4.0 12.0 0.00 0.00 0.00 67 1018.2
20200807104712 79 52 4.0 13.0 0.00 0.00 0.00 65 1018.2
20200807104213 79 62 4.0 13.0 0.00 0.00 0.00 64 1018.2
20200807103711 78 55 4.0 13.0 0.00 0.00 0.00 64 1018.2
20200807103214 78 57 5.0 12.0 0.00 0.00 0.00 66 1018.2
20200807102713 78 40 4.0 2.0 0.00 0.00 0.00 67 1018.2
20200807102213 77 35 1.0 2.0 0.00 0.00 0.00 66 1018.2
20200807101712 78 67 0.0 2.0 0.00 0.00 0.00 67 1018.2
20200807101211 78 50 0.0 0.0 0.00 0.00 0.00 67 1018.2
20200807100710 78 64 0.0 0.0 0.00 0.00 0.00 66 1018.2
20200807100212 77 46 0.0 0.0 0.00 0.00 0.00 69 1018.1
20200807095708 77 27 0.0 0.0 0.00 0.00 0.00 71 1018.2
20200807095211 77 56 0.0 0.0 0.00 0.00 0.00 70 1018.3
20200807094710 77 53 0.0 0.0 0.00 0.00 0.00 69 1018.3
20200807094211 77 51 0.0 0.0 0.00 0.00 0.00 68 1018.3
20200807093710 76 35 0.0 0.0 0.00 0.00 0.00 71 1018.3
20200807093209 76 57 0.0 0.0 0.00 0.00 0.00 70 1018.3
20200807092711 76 64 0.0 0.0 0.00 0.00 0.00 71 1018.4
20200807092212 75 54 0.0 0.0 0.00 0.00 0.00 71 1018.4
20200807091708 75 66 0.0 0.0 0.00 0.00 0.00 70 1018.4
20200807091210 76 64 0.0 0.0 0.00 0.00 0.00 70 1018.5
20200807090710 75 67 0.0 0.0 0.00 0.00 0.00 70 1018.5
20200807090210 75 46 0.0 0.0 0.00 0.00 0.00 72 1018.5
20200807085709 74 48 0.0 0.0 0.00 0.00 0.00 72 1018.5
20200807085210 74 67 0.0 0.0 0.00 0.00 0.00 71 1018.5
20200807084712 74 63 0.0 0.0 0.00 0.00 0.00 71 1018.5
20200807084212 74 62 0.0 0.0 0.00 0.00 0.00 71 1018.5
20200807083709 74 93 0.0 0.0 0.00 0.00 0.00 71 1018.5
20200807083210 74 52 0.0 0.0 0.00 0.00 0.00 73 1018.5
20200807082710 74 60 0.0 0.0 0.00 0.00 0.00 72 1018.5
20200807082211 73 57 0.0 0.0 0.00 0.00 0.00 74 1018.5
20200807081709 73 53 0.0 0.0 0.00 0.00 0.00 75 1018.6
20200807081211 73 59 0.0 0.0 0.00 0.00 0.00 76 1018.5
20200807080711 72 58 0.0 0.0 0.00 0.00 0.00 76 1018.5
20200807080211 72 57 0.0 6.0 0.00 0.00 0.00 77 1018.4
20200807075709 71 39 1.0 6.0 0.00 0.00 0.00 77 1018.5
20200807075210 71 61 1.0 7.0 0.00 0.00 0.00 78 1018.5
20200807074710 70 51 1.0 7.0 0.00 0.00 0.00 79 1018.6
20200807074212 70 59 1.0 7.0 0.00 0.00 0.00 78 1018.6
20200807073710 69 63 1.0 5.0 0.00 0.00 0.00 78 1018.7
20200807073210 69 48 1.0 5.0 0.00 0.00 0.00 79 1018.7
20200807072709 69 57 1.0 5.0 0.00 0.00 0.00 78 1018.7
20200807072212 69 57 0.0 5.0 0.00 0.00 0.00 79 1018.7
20200807071709 69 57 0.0 1.0 0.00 0.00 0.00 79 1018.7
20200807071210 68 59 0.0 0.0 0.00 0.00 0.00 79 1018.7
20200807070710 68 59 1.0 0.0 0.00 0.00 0.00 80 1018.8
20200807070211 68 59 1.0 0.0 0.00 0.00 0.00 80 1018.8
20200807013707 58 0.0 0.0 0.00 0.00 0.00 71 1018.2
20200807013208 58 60 0.0 0.0 0.00 0.00 0.00 71 1018.2
20200807012707 58 60 0.0 0.0 0.00 0.00 0.00 71 1018.2
20200807012208 58 60 0.0 0.0 0.00 0.00 0.00 71 1018.1
20200807011707 58 60 0.0 0.0 0.00 0.00 0.00 72 1018.1
20200807011209 58 60 0.0 0.0 0.00 0.00 0.00 73 1018.1
20200807010707 58 60 0.0 0.0 0.00 0.00 0.00 73 1018.2
20200807010209 58 60 0.0 0.0 0.00 0.00 0.00 74 1018.2
20200807005707 58 60 0.0 0.0 0.00 0.00 0.00 74 1018.2
20200807005209 58 60 0.0 0.0 0.00 0.00 0.00 75 1018.1
20200807004707 59 60 0.0 0.0 0.00 0.00 0.00 75 1018.2
20200807004209 59 60 0.0 0.0 0.00 0.00 0.00 75 1018.2
20200807003706 59 60 0.0 0.0 0.00 0.00 0.00 75 1018.2
20200807003209 59 60 0.0 0.0 0.00 0.00 0.00 75 1018.2
20200807002706 60 60 0.0 0.0 0.00 0.00 0.00 75 1018.2
20200807002209 60 60 0.0 0.0 0.00 0.00 0.00 75 1018.2
20200807001706 60 60 0.0 0.0 0.00 0.00 0.00 75 1018.2
20200807001209 60 60 0.0 0.0 0.00 0.00 0.00 74 1018.2
20200807000708 61 60 0.0 0.0 0.00 0.00 0.00 74 1018.2
20200807000210 61 60 0.0 0.0 0.00 0.00 0.00 74 1018.2
20200806235706 61 60 0.0 0.0 0.00 0.00 0.00 74 1018.3
20200806235208 61 60 0.0 0.0 0.00 0.00 0.00 74 1018.3
20200806234707 61 60 0.0 0.0 0.00 0.00 0.00 75 1018.3
20200806234210 61 60 0.0 0.0 0.00 0.00 0.00 75 1018.3
20200806233706 61 60 0.0 0.0 0.00 0.00 0.00 75 1018.4
20200806233208 61 60 0.0 0.0 0.00 0.00 0.00 75 1018.3
20200806232707 61 60 0.0 0.0 0.00 0.00 0.00 76 1018.4
20200806232208 61 60 0.0 0.0 0.00 0.00 0.00 76 1018.3
20200806231706 61 60 0.0 0.0 0.00 0.00 0.00 76 1018.4
20200806231208 61 60 0.0 0.0 0.00 0.00 0.00 76 1018.4
20200806230707 61 60 0.0 0.0 0.00 0.00 0.00 76 1018.4
20200806230210 61 60 0.0 0.0 0.00 0.00 0.00 77 1018.4
20200806225707 61 60 0.0 0.0 0.00 0.00 0.00 77 1018.4
20200806225208 61 60 0.0 0.0 0.00 0.00 0.00 78 1018.4
20200806224707 62 60 0.0 0.0 0.00 0.00 0.00 78 1018.5
20200806224211 62 60 0.0 0.0 0.00 0.00 0.00 78 1018.5
20200806223706 62 60 0.0 0.0 0.00 0.00 0.00 78 1018.5
20200806223208 62 60 0.0 0.0 0.00 0.00 0.00 78 1018.5
20200806222711 62 60 0.0 0.0 0.00 0.00 0.00 78 1018.4
20200806222217 62 60 0.0 0.0 0.00 0.00 0.00 78 1018.4
20200806221709 63 60 0.0 0.0 0.00 0.00 0.00 78 1018.4
20200806221208 63 60 0.0 0.0 0.00 0.00 0.00 78 1018.5
20200806220705 63 60 0.0 0.0 0.00 0.00 0.00 78 1018.5
20200806220210 63 60 0.0 0.0 0.00 0.00 0.00 78 1018.5
20200806215707 63 60 0.0 0.0 0.00 0.00 0.00 78 1018.5
20200806215208 63 60 0.0 0.0 0.00 0.00 0.00 78 1018.5
20200806214706 63 60 0.0 0.0 0.00 0.00 0.00 78 1018.5
20200806214209 63 60 0.0 0.0 0.00 0.00 0.00 79 1018.5
20200806213707 63 60 0.0 0.0 0.00 0.00 0.00 79 1018.5
20200806213208 64 60 0.0 0.0 0.00 0.00 0.00 79 1018.5
20200806212707 64 60 0.0 0.0 0.00 0.00 0.00 79 1018.5
20200806212209 64 60 0.0 0.0 0.00 0.00 0.00 79 1018.5
20200806211707 64 60 0.0 0.0 0.00 0.00 0.00 79 1018.5
20200806211209 64 60 0.0 0.0 0.00 0.00 0.00 79 1018.6
20200806210706 64 60 0.0 0.0 0.00 0.00 0.00 80 1018.6
20200806210210 65 60 0.0 0.0 0.00 0.00 0.00 79 1018.6
20200806205706 65 60 0.0 0.0 0.00 0.00 0.00 79 1018.6
20200806205208 65 60 0.0 0.0 0.00 0.00 0.00 79 1018.6
20200806204706 65 60 0.0 0.0 0.00 0.00 0.00 79 1018.6
20200806204209 66 60 0.0 0.0 0.00 0.00 0.00 79 1018.5
20200806203707 66 60 0.0 0.0 0.00 0.00 0.00 79 1018.6
20200806203209 66 60 0.0 0.0 0.00 0.00 0.00 79 1018.6
20200806202708 66 60 0.0 0.0 0.00 0.00 0.00 78 1018.6
20200806202210 66 60 0.0 0.0 0.00 0.00 0.00 78 1018.6
20200806201706 67 60 0.0 0.0 0.00 0.00 0.00 78 1018.6
20200806201208 67 60 0.0 0.0 0.00 0.00 0.00 78 1018.6
20200806200707 67 60 0.0 0.0 0.00 0.00 0.00 77 1018.6
20200806200209 67 60 0.0 0.0 0.00 0.00 0.00 77 1018.5
20200806195707 67 60 0.0 0.0 0.00 0.00 0.00 76 1018.5
20200806195208 68 60 0.0 0.0 0.00 0.00 0.00 76 1018.5
20200806194707 68 60 0.0 0.0 0.00 0.00 0.00 75 1018.5
20200806194209 68 60 0.0 0.0 0.00 0.00 0.00 75 1018.5
20200806193707 68 60 0.0 0.0 0.00 0.00 0.00 75 1018.5
20200806193208 68 60 0.0 0.0 0.00 0.00 0.00 74 1018.5
20200806192706 69 60 0.0 0.0 0.00 0.00 0.00 74 1018.5
20200806192209 69 60 0.0 0.0 0.00 0.00 0.00 73 1018.4
20200806191706 69 60 0.0 0.0 0.00 0.00 0.00 73 1018.4
20200806191208 69 60 0.0 0.0 0.00 0.00 0.00 73 1018.4
20200806190707 70 60 0.0 0.0 0.00 0.00 0.00 72 1018.3
20200806190209 70 60 0.0 0.0 0.00 0.00 0.00 72 1018.3
20200806185707 70 60 0.0 0.0 0.00 0.00 0.00 72 1018.2
20200806185208 71 60 0.0 0.0 0.00 0.00 0.00 71 1018.1
20200806184707 71 60 0.0 0.0 0.00 0.00 0.00 70 1018.2
20200806184209 71 60 0.0 0.0 0.00 0.00 0.00 69 1018.1
20200806183708 72 60 0.0 0.0 0.00 0.00 0.00 69 1018.0
20200806183207 72 60 0.0 1.0 0.00 0.00 0.00 67 1018.0
20200806182708 73 60 0.0 1.0 0.00 0.00 0.00 67 1018.0
20200806182210 74 60 0.0 2.0 0.00 0.00 0.00 66 1018.0
20200806181706 74 60 0.0 2.0 0.00 0.00 0.00 66 1018.0
20200806181208 74 60 0.0 4.0 0.00 0.00 0.00 66 1017.9